Rangeley, Maine, United States (04970)
Lat: 44.97N, Lon: 70.64W
Wx Zone: MEZ008
Local Info
Past Weather Observations for Today

NOTE: This archive is for the closest National Weather Service station to Rangeley. Information may differ from the station used for current weather conditions.

Click here for Long-term Archive

Time Weather Temperature Dewpoint Humidity Pressure Winds Precip Visibility
18:52
Clear
70°F / 21°C 57°F / 14°C 64% 29.77 in
(1008 mb)
Calm - 10SM
17:52
Clear
73°F / 23°C 55°F / 13°C 53% 29.74 in
(1007 mb)
Variable 4.6 mph
(Variable 7 kph)
- 10SM
16:52
Partly Cloudy
73°F / 23°C 55°F / 13°C 53% 29.74 in
(1007 mb)
SSW 8.1 mph
(SSW 13 kph)
- 10SM
16:32
Partly Cloudy
Thunder Storms
73°F / 23°C 54°F / 12°C 50% 29.74 in
(1007 mb)
Variable 4.6 mph
(Variable 7 kph)
- 10SM
15:52
Partly Cloudy
73°F / 23°C 54°F / 12°C 50% 29.74 in
(1007 mb)
Variable 4.6 mph
(Variable 7 kph)
- 10SM
14:52
Partly Cloudy
73°F / 23°C 59°F / 15°C 61% 29.74 in
(1007 mb)
S 8.1 mph
(S 13 kph)
- 10SM
14:07
Clear
72°F / 22°C 55°F / 13°C 57% 29.74 in
(1007 mb)
Variable 5.8 mph
(Variable 9 kph)
- 10SM
13:52
Partly Cloudy
Thunder Storms
73°F / 23°C 57°F / 14°C 57% 29.74 in
(1007 mb)
NW 9.2 mph
(NW 15 kph)
0.00 in
(0.00 mm)
10SM
13:44
Partly Cloudy
75°F / 24°C 57°F / 14°C 54% 29.74 in
(1007 mb)
Variable 5.8 mph
(Variable 9 kph)
0.00 in
(0.00 mm)
10SM
13:29
Mostly Cloudy
Thunder Storms
70°F / 21°C 61°F / 16°C 73% 29.74 in
(1007 mb)
SSW 8.1 mph
(SSW 13 kph)
0.00 in
(0.00 mm)
10SM
13:05
Partly Cloudy
72°F / 22°C 63°F / 17°C 73% 29.74 in
(1007 mb)
SSE 6.9 mph
(SSE 11 kph)
- 10SM
12:52
Partly Cloudy
Thunder Storms
70°F / 21°C 63°F / 17°C 78% 29.74 in
(1007 mb)
SSE 5.8 mph
(SSE 9 kph)
0.10 in
(2.54 mm)
10SM
12:48
Mostly Cloudy
Thunder Storms
70°F / 21°C 61°F / 16°C 73% 29.74 in
(1007 mb)
S 8.1 mph
(S 13 kph)
0.10 in
(2.54 mm)
10SM
12:40
Mostly Cloudy
Light Rain
70°F / 21°C 63°F / 17°C 78% 29.74 in
(1007 mb)
SW 6.9 mph
(SW 11 kph)
0.10 in
(2.54 mm)
7SM
12:26
Mostly Cloudy
Thunder Storms
68°F / 20°C 61°F / 16°C 78% 29.74 in
(1007 mb)
Calm 0.10 in
(2.54 mm)
10SM
12:19
Mostly Cloudy
Thunder Storms
70°F / 21°C 59°F / 15°C 69% 29.74 in
(1007 mb)
NW 4.6 mph
(NW 7 kph)
0.09 in
(2.29 mm)
2 1/2SM
12:12
Mostly Cloudy
Thunder Storms
72°F / 22°C 59°F / 15°C 65% 29.74 in
(1007 mb)
NNW 8.1 mph
(NNW 13 kph)
0.09 in
(2.29 mm)
1 1/4SM
12:04
Mostly Cloudy
Thunder Storms
75°F / 24°C 57°F / 14°C 54% 29.74 in
(1007 mb)
Variable 4.6 mph
(Variable 7 kph)
- 10SM
11:52
Mostly Cloudy
75°F / 24°C 57°F / 14°C 54% 29.71 in
(1006 mb)
Variable 4.6 mph
(Variable 7 kph)
- 10SM
10:52
Overcast
75°F / 24°C 55°F / 13°C 50% 29.74 in
(1007 mb)
Calm - 10SM
09:52
Overcast
72°F / 22°C 57°F / 14°C 61% 29.74 in
(1007 mb)
Variable 3.5 mph
(Variable 6 kph)
- 10SM
08:52
Overcast
72°F / 22°C 59°F / 15°C 65% 29.74 in
(1007 mb)
Variable 4.6 mph
(Variable 7 kph)
- 10SM
07:52
Partly Cloudy
68°F / 20°C 57°F / 14°C 69% 29.74 in
(1007 mb)
Calm - 10SM
06:52
Partly Cloudy
61°F / 16°C 55°F / 13°C 83% 29.74 in
(1007 mb)
Calm - 10SM
05:52
Partly Cloudy
54°F / 12°C 54°F / 12°C 100% 29.77 in
(1008 mb)
Calm - 10SM
05:35
Mostly Cloudy
Fog And Mist
54°F / 12°C 52°F / 11°C 94% 29.74 in
(1007 mb)
Calm - 4SM
05:28
Overcast
Fog And Mist
54°F / 12°C 52°F / 11°C 94% 29.74 in
(1007 mb)
Calm - 2SM
05:25
Overcast
Fog And Mist
52°F / 11°C 50°F / 10°C 94% 29.77 in
(1008 mb)
Calm - 1SM
05:18
Mostly Cloudy
Fog And Mist
52°F / 11°C 50°F / 10°C 94% 29.74 in
(1007 mb)
N 3.5 mph
(N 6 kph)
- 1 1/2SM
05:03
Overcast
Fog And Mist
52°F / 11°C 50°F / 10°C 94% 29.74 in
(1007 mb)
Calm - 3SM
05:01
Overcast
Fog And Mist
52°F / 11°C 50°F / 10°C 94% 29.74 in
(1007 mb)
Calm - 1 1/2SM
04:52
Obscured
Fog And Mist
52°F / 11°C 50°F / 10°C 94% 29.74 in
(1007 mb)
Calm - 3/4SM
04:47
Obscured
Fog
52°F / 11°C 50°F / 10°C 94% 29.74 in
(1007 mb)
Calm - 1/2SM
04:37
Obscured
Fog And Mist
52°F / 11°C 52°F / 11°C 100% 29.74 in
(1007 mb)
Calm - 3/4SM
04:34
Mostly Cloudy
Fog And Mist
52°F / 11°C 52°F / 11°C 100% 29.74 in
(1007 mb)
Calm - 1 3/4SM
04:04
Overcast
Fog And Mist
52°F / 11°C 50°F / 10°C 94% 29.74 in
(1007 mb)
NE 3.5 mph
(NE 6 kph)
- 3SM
04:00
Overcast
Fog And Mist
52°F / 11°C 50°F / 10°C 94% 29.74 in
(1007 mb)
Calm - 1 1/2SM
03:52
Obscured
Fog
52°F / 11°C 50°F / 10°C 94% 29.74 in
(1007 mb)
Calm - 1/2SM
03:20
Obscured
Fog
52°F / 11°C 50°F / 10°C 94% 29.74 in
(1007 mb)
Calm - 1/4SM
03:11
Overcast
Fog And Mist
52°F / 11°C 48°F / 9°C 88% 29.74 in
(1007 mb)
SSE 3.5 mph
(SSE 6 kph)
- 3/4SM
03:09
Overcast
Fog And Mist
52°F / 11°C 48°F / 9°C 88% 29.74 in
(1007 mb)
Variable 3.5 mph
(Variable 6 kph)
- 1 1/2SM
02:52
Overcast
50°F / 10°C 48°F / 9°C 94% 29.74 in
(1007 mb)
Calm - 10SM
02:40
Mostly Cloudy
50°F / 10°C 48°F / 9°C 94% 29.74 in
(1007 mb)
Calm - 10SM
01:52
Partly Cloudy
54°F / 12°C 48°F / 9°C 82% 29.77 in
(1008 mb)
N 3.5 mph
(N 6 kph)
- 10SM
01:31
Partly Cloudy
52°F / 11°C 48°F / 9°C 88% 29.77 in
(1008 mb)
SSE 3.5 mph
(SSE 6 kph)
- 10SM
00:52
Clear
52°F / 11°C 50°F / 10°C 94% 29.77 in
(1008 mb)
Calm - 10SM
Time Weather Temperature Dewpoint Humidity Pressure Winds Precip Visibility


Weather for websites

WeatherForYou.com, LLC is not responsible for any damages or problems caused by this service. Current weather conditions are obtained from the closest station including government and personal stations which may have varying degrees of accuracy. Weather forecasts are derived from the NOAA NDFD. Like all things, this site belongs to Jesus Christ... He just trusts us to maintain it. If you have any questions or comments email webmaster@weatherforyou.com

Copyright © 2015, WeatherForYou.com LLC. All rights reserved.